| time (UTC) | temp F | wind direction | speed MPH | gust MPH | rain 1hr in | rain 24hr in | rain mn in | humidity % | barometer mb |
| 20260502214320 | 63 | 191 | 0.0 | 0.0 | 0.00 | 0.00 | 0.00 | 55 | 1018.3 |
| 20260502213823 | 63 | 191 | 0.0 | 0.0 | 0.00 | 0.00 | 0.00 | 54 | 1018.3 |
| 20260502213345 | 64 | 191 | 0.0 | 0.0 | 0.00 | 0.00 | 0.00 | 54 | 1018.3 |
| 20260502212829 | 64 | 191 | 0.0 | 0.0 | 0.00 | 0.00 | 0.00 | 54 | 1018.3 |
| 20260502212329 | 64 | 190 | 0.0 | 0.0 | 0.00 | 0.00 | 0.00 | 54 | 1018.3 |
| 20260502211815 | 64 | 191 | 0.0 | 0.0 | 0.00 | 0.00 | 0.00 | 53 | 1018.3 |
| 20260502211320 | 64 | 191 | 0.0 | 0.0 | 0.00 | 0.00 | 0.00 | 53 | 1018.3 |
| 20260502210843 | 64 | 190 | 0.0 | 0.0 | 0.00 | 0.00 | 0.00 | 53 | 1018.3 |
| 20260502210329 | 64 | 191 | 0.0 | 0.0 | 0.00 | 0.00 | 0.00 | 53 | 1018.3 |
| 20260502205920 | 65 | 191 | 0.0 | 0.0 | 0.00 | 0.00 | 0.00 | 53 | 1018.3 |
| 20260502205341 | 65 | 191 | 0.0 | 0.0 | 0.00 | 0.00 | 0.00 | 53 | 1018.3 |
| 20260502204820 | 65 | 190 | 0.0 | 0.0 | 0.00 | 0.00 | 0.00 | 52 | 1018.4 |
| 20260502204326 | 65 | 190 | 0.0 | 0.0 | 0.00 | 0.00 | 0.00 | 52 | 1018.4 |
| 20260502203850 | 65 | 190 | 0.0 | 0.0 | 0.00 | 0.00 | 0.00 | 52 | 1018.4 |
| 20260502203313 | 65 | 190 | 0.0 | 0.0 | 0.00 | 0.00 | 0.00 | 52 | 1018.4 |
| 20260502202838 | 65 | 190 | 0.0 | 0.0 | 0.00 | 0.00 | 0.00 | 53 | 1018.4 |
| 20260502202343 | 65 | 190 | 0.0 | 0.0 | 0.00 | 0.00 | 0.00 | 53 | 1018.4 |
| 20260502201828 | 66 | 190 | 0.0 | 0.0 | 0.00 | 0.00 | 0.00 | 53 | 1018.4 |
| 20260502201351 | 66 | 190 | 0.0 | 0.0 | 0.00 | 0.00 | 0.00 | 53 | 1018.4 |
| 20260502200834 | 66 | 190 | 0.0 | 0.0 | 0.00 | 0.00 | 0.00 | 53 | 1018.4 |
| 20260502200335 | 66 | 190 | 0.0 | 0.0 | 0.00 | 0.00 | 0.00 | 54 | 1018.4 |
| 20260502195815 | 66 | 190 | 0.0 | 0.0 | 0.00 | 0.00 | 0.00 | 54 | 1018.4 |
| 20260502195342 | 66 | 190 | 0.0 | 0.0 | 0.00 | 0.00 | 0.00 | 54 | 1018.4 |
| 20260502194828 | 66 | 190 | 0.0 | 0.0 | 0.00 | 0.00 | 0.00 | 54 | 1018.4 |
| 20260502194409 | 66 | 190 | 0.0 | 0.0 | 0.00 | 0.00 | 0.00 | 54 | 1018.4 |
| 20260502193849 | 66 | 190 | 0.0 | 0.0 | 0.00 | 0.00 | 0.00 | 55 | 1018.4 |
| 20260502193351 | 67 | 190 | 0.0 | 0.0 | 0.00 | 0.00 | 0.00 | 56 | 1018.3 |
| 20260502192931 | 67 | 190 | 0.0 | 0.0 | 0.00 | 0.00 | 0.00 | 56 | 1018.3 |
| 20260502192349 | 67 | 190 | 0.0 | 0.0 | 0.00 | 0.00 | 0.00 | 57 | 1018.3 |
| 20260502191831 | 67 | 190 | 0.0 | 0.0 | 0.00 | 0.00 | 0.00 | 56 | 1018.3 |
| 20260502191314 | 68 | 190 | 0.0 | 0.0 | 0.00 | 0.00 | 0.00 | 56 | 1018.3 |
| 20260502190938 | 68 | 190 | 0.0 | 0.0 | 0.00 | 0.00 | 0.00 | 56 | 1018.3 |
| 20260502190352 | 68 | 190 | 0.0 | 0.0 | 0.00 | 0.00 | 0.00 | 55 | 1018.1 |
| 20260502185840 | 68 | 190 | 0.0 | 0.0 | 0.00 | 0.00 | 0.00 | 55 | 1018.1 |
| 20260502185339 | 69 | 190 | 0.0 | 0.0 | 0.00 | 0.00 | 0.00 | 54 | 1018.1 |
| 20260502184839 | 69 | 190 | 0.0 | 0.0 | 0.00 | 0.00 | 0.00 | 53 | 1018.0 |
| 20260502184428 | 69 | 190 | 0.0 | 0.0 | 0.00 | 0.00 | 0.00 | 53 | 1018.0 |
| 20260502183849 | 70 | 190 | 0.0 | 0.0 | 0.00 | 0.00 | 0.00 | 51 | 1018.0 |
| 20260502183331 | 70 | 190 | 0.0 | 0.0 | 0.00 | 0.00 | 0.00 | 51 | 1018.0 |
| 20260502182327 | 70 | 190 | 0.0 | 0.0 | 0.00 | 0.00 | 0.00 | 50 | 1017.9 |
| 20260502181928 | 71 | 190 | 0.0 | 0.0 | 0.00 | 0.00 | 0.00 | 49 | 1017.9 |
| 20260502181345 | 71 | 190 | 0.0 | 0.0 | 0.00 | 0.00 | 0.00 | 49 | 1017.9 |
| 20260502180849 | 71 | 190 | 0.0 | 0.0 | 0.00 | 0.00 | 0.00 | 48 | 1017.9 |
| 20260502180408 | 71 | 190 | 0.0 | 0.0 | 0.00 | 0.00 | 0.00 | 48 | 1017.9 |
| 20260502170351 | 73 | 173 | 4.0 | 8.0 | 0.00 | 0.00 | 0.00 | 46 | 1018.0 |
| 20260502163826 | 74 | 158 | 3.0 | 8.0 | 0.00 | 0.00 | 0.00 | 44 | 1018.2 |
| 20260502163330 | 74 | 135 | 5.0 | 9.0 | 0.00 | 0.00 | 0.00 | 44 | 1018.2 |
| 20260502162853 | 74 | 169 | 5.0 | 10.0 | 0.00 | 0.00 | 0.00 | 44 | 1018.2 |
| 20260502162336 | 74 | 177 | 6.0 | 9.0 | 0.00 | 0.00 | 0.00 | 43 | 1018.2 |
| 20260502161839 | 75 | 213 | 4.0 | 11.0 | 0.00 | 0.00 | 0.00 | 43 | 1018.3 |
| 20260502161319 | 75 | 159 | 7.0 | 14.0 | 0.00 | 0.00 | 0.00 | 42 | 1018.3 |
| 20260502160825 | 75 | 192 | 5.0 | 14.0 | 0.00 | 0.00 | 0.00 | 42 | 1018.3 |
| 20260502160326 | 75 | 190 | 6.0 | 11.0 | 0.00 | 0.00 | 0.00 | 42 | 1018.4 |
| 20260502151822 | 78 | 225 | 5.0 | 11.0 | 0.00 | 0.00 | 0.00 | 33 | 1018.9 |
| 20260502151332 | 78 | 234 | 5.0 | 11.0 | 0.00 | 0.00 | 0.00 | 33 | 1018.9 |
| 20260502150824 | 78 | 203 | 4.0 | 8.0 | 0.00 | 0.00 | 0.00 | 32 | 1018.9 |
| 20260502150334 | 78 | 223 | 2.0 | 11.0 | 0.00 | 0.00 | 0.00 | 34 | 1018.9 |
| 20260502130329 | 77 | 267 | 3.0 | 9.0 | 0.00 | 0.00 | 0.00 | 33 | 1020.4 |
| 20260502123344 | 77 | 246 | 3.0 | 9.0 | 0.00 | 0.00 | 0.00 | 32 | 1020.9 |
| 20260502122828 | 76 | 240 | 0.0 | 13.0 | 0.00 | 0.00 | 0.00 | 32 | 1020.9 |
| 20260502122435 | 76 | 235 | 7.0 | 13.0 | 0.00 | 0.00 | 0.00 | 33 | 1020.9 |
| 20260502121839 | 76 | 241 | 5.0 | 13.0 | 0.00 | 0.00 | 0.00 | 33 | 1021.1 |
| 20260502121318 | 77 | 281 | 2.0 | 13.0 | 0.00 | 0.00 | 0.00 | 32 | 1021.1 |
| 20260502120856 | 77 | 211 | 5.0 | 10.0 | 0.00 | 0.00 | 0.00 | 31 | 1021.1 |
| 20260502120318 | 77 | 278 | 3.0 | 7.0 | 0.00 | 0.00 | 0.00 | 33 | 1021.3 |
| 20260502115842 | 76 | 244 | 2.0 | 7.0 | 0.00 | 0.00 | 0.00 | 34 | 1021.3 |
| 20260502115348 | 75 | 286 | 1.0 | 10.0 | 0.00 | 0.00 | 0.00 | 33 | 1021.3 |
| 20260502114828 | 75 | 217 | 5.0 | 10.0 | 0.00 | 0.00 | 0.00 | 34 | 1021.5 |
| 20260502114328 | 75 | 190 | 2.0 | 10.0 | 0.00 | 0.00 | 0.00 | 34 | 1021.5 |
| 20260502113911 | 76 | 231 | 4.0 | 8.0 | 0.00 | 0.00 | 0.00 | 33 | 1021.5 |
| 20260502113322 | 76 | 200 | 1.0 | 10.0 | 0.00 | 0.00 | 0.00 | 34 | 1021.8 |
| 20260502112823 | 75 | 207 | 5.0 | 9.0 | 0.00 | 0.00 | 0.00 | 34 | 1021.8 |
| 20260502111818 | 75 | 214 | 4.0 | 14.0 | 0.00 | 0.00 | 0.00 | 34 | 1022.0 |
| 20260502111322 | 74 | 281 | 2.0 | 12.0 | 0.00 | 0.00 | 0.00 | 35 | 1022.0 |
| 20260502110832 | 74 | 284 | 6.0 | 12.0 | 0.00 | 0.00 | 0.00 | 34 | 1022.0 |
| 20260502110333 | 75 | 256 | 6.0 | 12.0 | 0.00 | 0.00 | 0.00 | 35 | 1022.0 |
| 20260502105834 | 74 | 250 | 2.0 | 12.0 | 0.00 | 0.00 | 0.00 | 36 | 1022.1 |
| 20260502105317 | 74 | 265 | 6.0 | 12.0 | 0.00 | 0.00 | 0.00 | 35 | 1022.1 |
| 20260502104819 | 74 | 263 | 5.0 | 12.0 | 0.00 | 0.00 | 0.00 | 35 | 1022.4 |
| 20260502104344 | 74 | 205 | 3.0 | 9.0 | 0.00 | 0.00 | 0.00 | 35 | 1022.4 |
| 20260502103850 | 74 | 209 | 6.0 | 9.0 | 0.00 | 0.00 | 0.00 | 35 | 1022.4 |
| 20260502103330 | 74 | 194 | 3.0 | 8.0 | 0.00 | 0.00 | 0.00 | 36 | 1022.5 |
| 20260502102816 | 73 | 261 | 5.0 | 11.0 | 0.00 | 0.00 | 0.00 | 36 | 1022.5 |
| 20260502102339 | 74 | 284 | 7.0 | 11.0 | 0.00 | 0.00 | 0.00 | 36 | 1022.5 |
| 20260502101859 | 74 | 224 | 5.0 | 9.0 | 0.00 | 0.00 | 0.00 | 37 | 1022.6 |
| 20260502101318 | 74 | 224 | 3.0 | 9.0 | 0.00 | 0.00 | 0.00 | 37 | 1022.6 |
| 20260502100858 | 73 | 217 | 4.0 | 9.0 | 0.00 | 0.00 | 0.00 | 38 | 1022.6 |
| 20260502100337 | 73 | 207 | 1.0 | 7.0 | 0.00 | 0.00 | 0.00 | 38 | 1022.9 |
| 20260502091327 | 71 | 242 | 0.0 | 0.0 | 0.00 | 0.00 | 0.00 | 41 | 1023.1 |
| 20260502090827 | 71 | 242 | 0.0 | 0.0 | 0.00 | 0.00 | 0.00 | 41 | 1023.1 |
| 20260502090319 | 71 | 241 | 0.0 | 0.0 | 0.00 | 0.00 | 0.00 | 42 | 1023.2 |
| 20260502071353 | 61 | 311 | 0.0 | 4.0 | 0.00 | 0.00 | 0.00 | 59 | 1023.9 |
| 20260502070327 | 61 | 269 | 0.0 | 0.0 | 0.00 | 0.00 | 0.00 | 60 | 1024.0 |
| 20260502065847 | 60 | 261 | 0.0 | 0.0 | 0.00 | 0.00 | 0.00 | 60 | 1024.0 |
| 20260502065409 | 60 | 252 | 0.0 | 0.0 | 0.00 | 0.00 | 0.00 | 61 | 1024.0 |
| 20260502064828 | 60 | 252 | 0.0 | 0.0 | 0.00 | 0.00 | 0.00 | 61 | 1024.0 |
| 20260502064351 | 60 | 244 | 0.0 | 0.0 | 0.00 | 0.00 | 0.00 | 61 | 1024.0 |
| 20260502063917 | 60 | 242 | 0.0 | 0.0 | 0.00 | 0.00 | 0.00 | 61 | 1024.0 |
| 20260502063339 | 59 | 242 | 0.0 | 0.0 | 0.00 | 0.00 | 0.00 | 63 | 1024.0 |
| 20260502062819 | 59 | 243 | 0.0 | 0.0 | 0.00 | 0.00 | 0.00 | 64 | 1024.0 |
| 20260502062343 | 58 | 244 | 0.0 | 0.0 | 0.00 | 0.00 | 0.00 | 64 | 1024.0 |
| 20260502061320 | 58 | 244 | 0.0 | 0.0 | 0.00 | 0.00 | 0.00 | 67 | 1024.0 |
| 20260502060844 | 57 | 244 | 0.0 | 0.0 | 0.00 | 0.00 | 0.00 | 67 | 1024.0 |
| 20260502060327 | 57 | 244 | 0.0 | 0.0 | 0.00 | 0.00 | 0.00 | 68 | 1024.0 |
| 20260502055852 | 56 | 244 | 0.0 | 0.0 | 0.00 | 0.00 | 0.00 | 69 | 1024.0 |
| 20260502055318 | 55 | 244 | 0.0 | 0.0 | 0.00 | 0.00 | 0.00 | 70 | 1024.0 |
| 20260502054821 | 55 | 244 | 0.0 | 0.0 | 0.00 | 0.00 | 0.00 | 71 | 1024.0 |
| 20260502054338 | 54 | 244 | 0.0 | 0.0 | 0.00 | 0.00 | 0.00 | 71 | 1024.0 |
| 20260502053825 | 54 | 244 | 0.0 | 0.0 | 0.00 | 0.00 | 0.00 | 71 | 1024.0 |
| 20260502053329 | 53 | 244 | 0.0 | 0.0 | 0.00 | 0.00 | 0.00 | 72 | 1024.0 |
| 20260502052816 | 53 | 244 | 0.0 | 0.0 | 0.00 | 0.00 | 0.00 | 72 | 1024.0 |
| 20260502052400 | 52 | 244 | 0.0 | 0.0 | 0.00 | 0.00 | 0.00 | 72 | 1024.0 |
| 20260502051842 | 52 | 244 | 0.0 | 0.0 | 0.00 | 0.00 | 0.00 | 73 | 1023.9 |
| 20260502051321 | 51 | 244 | 0.0 | 0.0 | 0.00 | 0.00 | 0.00 | 74 | 1023.9 |
| 20260502050831 | 51 | 244 | 0.0 | 0.0 | 0.00 | 0.00 | 0.00 | 75 | 1023.9 |
| 20260502050316 | 50 | 244 | 0.0 | 0.0 | 0.00 | 0.00 | 0.00 | 76 | 1023.8 |
| 20260502045820 | 50 | 244 | 0.0 | 0.0 | 0.00 | 0.00 | 0.00 | 76 | 1023.8 |
| 20260502044832 | 49 | 244 | 0.0 | 0.0 | 0.00 | 0.00 | 0.00 | 77 | 1023.8 |
| 20260502044353 | 49 | 244 | 0.0 | 0.0 | 0.00 | 0.00 | 0.00 | 78 | 1023.8 |
| 20260502043816 | 48 | 244 | 0.0 | 0.0 | 0.00 | 0.00 | 0.00 | 77 | 1023.8 |
| 20260502043350 | 48 | 245 | 0.0 | 0.0 | 0.00 | 0.00 | 0.00 | 77 | 1023.8 |
| 20260502042831 | 48 | 244 | 0.0 | 0.0 | 0.00 | 0.00 | 0.00 | 77 | 1023.7 |
| 20260502042356 | 48 | 245 | 0.0 | 0.0 | 0.00 | 0.00 | 0.00 | 77 | 1023.7 |
| 20260502041815 | 48 | 244 | 0.0 | 0.0 | 0.00 | 0.00 | 0.00 | 77 | 1023.7 |
| 20260502041326 | 48 | 244 | 0.0 | 0.0 | 0.00 | 0.00 | 0.00 | 77 | 1023.7 |
| 20260502040903 | 48 | 244 | 0.0 | 0.0 | 0.00 | 0.00 | 0.00 | 77 | 1023.7 |
| 20260502040343 | 48 | 245 | 0.0 | 0.0 | 0.00 | 0.00 | 0.00 | 77 | 1023.8 |
| 20260502035929 | 48 | 245 | 0.0 | 0.0 | 0.00 | 0.00 | 0.00 | 77 | 1023.8 |
| 20260502035332 | 48 | 244 | 0.0 | 0.0 | 0.00 | 0.00 | 0.00 | 77 | 1023.8 |
| 20260502034820 | 47 | 245 | 0.0 | 0.0 | 0.00 | 0.00 | 0.00 | 77 | 1023.7 |
| 20260502034323 | 47 | 244 | 0.0 | 0.0 | 0.00 | 0.00 | 0.00 | 77 | 1023.7 |
| 20260502033923 | 48 | 244 | 0.0 | 0.0 | 0.00 | 0.00 | 0.00 | 77 | 1023.7 |
| 20260502033328 | 48 | 245 | 0.0 | 0.0 | 0.00 | 0.00 | 0.00 | 77 | 1023.7 |
| 20260502032854 | 48 | 245 | 0.0 | 0.0 | 0.00 | 0.00 | 0.00 | 77 | 1023.7 |
| 20260502032318 | 48 | 244 | 0.0 | 0.0 | 0.00 | 0.00 | 0.00 | 77 | 1023.7 |
| 20260502031844 | 48 | 244 | 0.0 | 0.0 | 0.00 | 0.00 | 0.00 | 77 | 1023.8 |
| 20260502031344 | 48 | 244 | 0.0 | 0.0 | 0.00 | 0.00 | 0.00 | 77 | 1023.8 |
| 20260502030826 | 48 | 245 | 0.0 | 0.0 | 0.00 | 0.00 | 0.00 | 77 | 1023.8 |
| 20260502030407 | 48 | 245 | 0.0 | 0.0 | 0.00 | 0.00 | 0.00 | 77 | 1024.0 |
| 20260502025849 | 48 | 245 | 0.0 | 0.0 | 0.00 | 0.00 | 0.00 | 77 | 1024.0 |
| 20260502025332 | 48 | 245 | 0.0 | 0.0 | 0.00 | 0.00 | 0.00 | 77 | 1024.0 |
| 20260502024818 | 48 | 244 | 0.0 | 0.0 | 0.00 | 0.00 | 0.00 | 77 | 1024.1 |
| 20260502024321 | 49 | 245 | 0.0 | 0.0 | 0.00 | 0.00 | 0.00 | 76 | 1024.1 |
| 20260502023822 | 49 | 245 | 0.0 | 0.0 | 0.00 | 0.00 | 0.00 | 76 | 1024.1 |
| 20260502023402 | 49 | 244 | 0.0 | 0.0 | 0.00 | 0.00 | 0.00 | 75 | 1024.0 |
| 20260502022904 | 49 | 244 | 0.0 | 0.0 | 0.00 | 0.00 | 0.00 | 75 | 1024.0 |
| 20260502022343 | 49 | 244 | 0.0 | 0.0 | 0.00 | 0.00 | 0.00 | 76 | 1024.0 |
| 20260502021412 | 49 | 244 | 0.0 | 0.0 | 0.00 | 0.00 | 0.00 | 75 | 1024.1 |
| 20260502020929 | 49 | 244 | 0.0 | 0.0 | 0.00 | 0.00 | 0.00 | 76 | 1024.1 |
| 20260502020310 | 49 | 244 | 0.0 | 0.0 | 0.00 | 0.00 | 0.00 | 75 | 1024.0 |
| 20260502015856 | 49 | 244 | 0.0 | 0.0 | 0.00 | 0.00 | 0.00 | 75 | 1024.0 |
| 20260502015322 | 49 | 244 | 0.0 | 0.0 | 0.00 | 0.00 | 0.00 | 75 | 1024.0 |
| 20260502014827 | 49 | 244 | 0.0 | 0.0 | 0.00 | 0.00 | 0.00 | 75 | 1024.1 |
| 20260502014351 | 49 | 245 | 0.0 | 0.0 | 0.00 | 0.00 | 0.00 | 75 | 1024.1 |
| 20260502013914 | 49 | 244 | 0.0 | 0.0 | 0.00 | 0.00 | 0.00 | 74 | 1024.1 |
| 20260502013315 | 50 | 244 | 0.0 | 0.0 | 0.00 | 0.00 | 0.00 | 74 | 1024.0 |
| 20260502012327 | 50 | 244 | 0.0 | 0.0 | 0.00 | 0.00 | 0.00 | 73 | 1024.0 |
| 20260502011828 | 50 | 245 | 0.0 | 0.0 | 0.00 | 0.00 | 0.00 | 73 | 1024.0 |
| 20260502011317 | 50 | 244 | 0.0 | 0.0 | 0.00 | 0.00 | 0.00 | 73 | 1023.9 |
| 20260502010838 | 50 | 244 | 0.0 | 0.0 | 0.00 | 0.00 | 0.00 | 73 | 1023.9 |
| 20260502010318 | 51 | 244 | 0.0 | 0.0 | 0.00 | 0.00 | 0.00 | 72 | 1023.9 |
| 20260502005842 | 51 | 244 | 0.0 | 0.0 | 0.00 | 0.00 | 0.00 | 70 | 1023.9 |
| 20260502005322 | 51 | 244 | 0.0 | 0.0 | 0.00 | 0.00 | 0.00 | 70 | 1023.9 |
| 20260502004845 | 51 | 244 | 0.0 | 0.0 | 0.00 | 0.00 | 0.00 | 70 | 1024.0 |
| 20260502004425 | 51 | 244 | 0.0 | 0.0 | 0.00 | 0.00 | 0.00 | 68 | 1024.0 |
| 20260502003823 | 51 | 245 | 0.0 | 0.0 | 0.00 | 0.00 | 0.00 | 67 | 1024.0 |
| 20260502003331 | 52 | 244 | 0.0 | 0.0 | 0.00 | 0.00 | 0.00 | 67 | 1024.0 |
| 20260502002834 | 52 | 244 | 0.0 | 0.0 | 0.00 | 0.00 | 0.00 | 67 | 1024.0 |
| 20260502002435 | 52 | 244 | 0.0 | 0.0 | 0.00 | 0.00 | 0.00 | 68 | 1024.0 |
| 20260502001834 | 52 | 244 | 0.0 | 0.0 | 0.00 | 0.00 | 0.00 | 68 | 1024.0 |
| 20260502001335 | 52 | 245 | 0.0 | 0.0 | 0.00 | 0.00 | 0.00 | 68 | 1024.1 |
| 20260502000816 | 52 | 245 | 0.0 | 0.0 | 0.00 | 0.00 | 0.00 | 66 | 1024.1 |
| 20260502000317 | 53 | 244 | 0.0 | 0.0 | 0.00 | 0.00 | 0.00 | 65 | 1024.1 |
| 20260501235845 | 53 | 244 | 0.0 | 0.0 | 0.00 | 0.00 | 0.00 | 64 | 1024.1 |
| 20260501235330 | 53 | 244 | 0.0 | 0.0 | 0.00 | 0.00 | 0.00 | 64 | 1024.1 |
| 20260501234913 | 53 | 244 | 0.0 | 0.0 | 0.00 | 0.00 | 0.00 | 63 | 1024.1 |
| 20260501234355 | 53 | 244 | 0.0 | 0.0 | 0.00 | 0.00 | 0.00 | 63 | 1024.1 |
| 20260501233818 | 53 | 244 | 0.0 | 0.0 | 0.00 | 0.00 | 0.00 | 62 | 1024.1 |
| 20260501233323 | 53 | 244 | 0.0 | 0.0 | 0.00 | 0.00 | 0.00 | 62 | 1024.1 |
| 20260501232826 | 54 | 244 | 0.0 | 0.0 | 0.00 | 0.00 | 0.00 | 62 | 1024.1 |
| 20260501232326 | 54 | 244 | 0.0 | 0.0 | 0.00 | 0.00 | 0.00 | 62 | 1024.1 |
| 20260501231827 | 54 | 244 | 0.0 | 0.0 | 0.00 | 0.00 | 0.00 | 62 | 1024.1 |
| 20260501230824 | 54 | 244 | 0.0 | 0.0 | 0.00 | 0.00 | 0.00 | 61 | 1024.1 |
| 20260501230345 | 54 | 244 | 0.0 | 0.0 | 0.00 | 0.00 | 0.00 | 61 | 1024.1 |
| 20260501225825 | 54 | 244 | 0.0 | 0.0 | 0.00 | 0.00 | 0.00 | 61 | 1024.1 |
| 20260501225351 | 55 | 244 | 0.0 | 0.0 | 0.00 | 0.00 | 0.00 | 60 | 1024.1 |
| 20260501224852 | 55 | 244 | 0.0 | 0.0 | 0.00 | 0.00 | 0.00 | 60 | 1024.1 |
| 20260501224334 | 55 | 244 | 0.0 | 0.0 | 0.00 | 0.00 | 0.00 | 59 | 1024.1 |
| 20260501223854 | 55 | 244 | 0.0 | 0.0 | 0.00 | 0.00 | 0.00 | 59 | 1024.1 |
| 20260501223340 | 55 | 244 | 0.0 | 0.0 | 0.00 | 0.00 | 0.00 | 59 | 1024.1 |
| 20260501222842 | 55 | 244 | 0.0 | 0.0 | 0.00 | 0.00 | 0.00 | 59 | 1024.1 |
| 20260501222342 | 55 | 244 | 0.0 | 0.0 | 0.00 | 0.00 | 0.00 | 59 | 1024.1 |
| 20260501221902 | 55 | 245 | 0.0 | 0.0 | 0.00 | 0.00 | 0.00 | 60 | 1024.0 |
| 20260501221324 | 55 | 244 | 0.0 | 0.0 | 0.00 | 0.00 | 0.00 | 59 | 1024.0 |
| 20260501220825 | 55 | 244 | 0.0 | 0.0 | 0.00 | 0.00 | 0.00 | 60 | 1024.0 |
| 20260501220339 | 56 | 245 | 0.0 | 0.0 | 0.00 | 0.00 | 0.00 | 59 | 1023.7 |
| 20260501215322 | 56 | 244 | 0.0 | 0.0 | 0.00 | 0.00 | 0.00 | 58 | 1023.7 |